Simultaneous Nadir Overpasses (SNOs) Predictions

Prediction of SNOs between NOAA-19 and TERRA Satellite Orbit:

Table of predicted SNOs for the next 14.0 days since TLE Epoch: 8/13/2012
Index Date (NOAA-19) Time (NOAA-19) NOAA-19 Lat,Lon Date (TERRA) Time (TERRA) TERRA Lat,Lon Distance(km) Time Diff (sec)
1 08/15/2012 11:03:13 -70.04,-167.83 08/15/2012 11:04:20 -69.90,-165.58 86.81 67
2 08/15/2012 11:54:01 69.03, 0.88 08/15/2012 11:54:01 69.02, 0.88 1.47 0
3 08/15/2012 12:44:49 -68.50, 168.86 08/15/2012 12:43:37 -68.59, 167.97 37.44 72
4 08/17/2012 15:47:40 -69.44, 121.92 08/17/2012 15:48:52 -69.32, 122.54 27.12 72
5 08/17/2012 16:38:39 68.99, -70.21 08/17/2012 16:38:23 68.99, -70.25 1.43 16
6 08/17/2012 17:29:16 -67.89, 98.50 08/17/2012 17:28:10 -67.95, 96.12 99.92 66
7 08/19/2012 20:32:13 -69.14, 51.19 08/19/2012 20:33:18 -69.13, 51.20 1.13 65
8 08/19/2012 21:23:18 68.99,-141.38 08/19/2012 21:22:46 68.96,-141.38 3.05 32
9 08/22/2012 01:16:51 -69.11, -19.92 08/22/2012 01:17:42 -69.11, -19.93 0.42 51
10 08/22/2012 02:07:56 68.94, 147.53 08/22/2012 02:07:10 68.94, 147.49 1.66 46
11 08/24/2012 06:01:29 -69.08, -91.03 08/24/2012 06:02:07 -69.09, -91.06 1.82 38
12 08/24/2012 06:52:35 68.95, 76.37 08/24/2012 06:51:35 68.92, 76.36 3.31 60
13 08/26/2012 10:46:08 -69.10,-162.22 08/26/2012 10:46:33 -69.07,-162.20 2.52 25
14 08/26/2012 11:37:13 68.90, 5.27 08/26/2012 11:36:01 68.90, 5.23 1.91 72
